Location: Arpaise
(41.0333°N, 14.7333°E)
Time: 06:59:29
(UTC+00:00)

Cosmos 2058 - Pass Details

Date: 05 July 2020
Orbit: 561 x 584 km, 82.5° (Epoch: 05 August)

Event Time Altitude Azimuth Distance (km) Brightness Sun altitude
Exits shadow 21:24:59 73° 117° (ESE) 605 2.8 -22.1°
Maximum altitude 21:25:07 74° 96° (E) 602 2.8 -22.1°
Drops below altitude 10° 21:29:16 10° 12° (NNE) 1,886 6.3 -22.5°
Sets 21:31:27 0° 10° (N) 2,785 7.3 -22.6°
